Simultaneous Nadir Overpasses (SNOs) Predictions

Prediction of SNOs between GOES-15 and NOAA-20 Satellite Orbit:

Table of predicted SNOs for the next 14.0 days since TLE Epoch: 3/9/2024
Index Date Time (GOES-15) GOES-15 Lat,Lon NOAA-20 Lat,Lon Distance(km) Time Diff (sec)
1 03/10/2024 09:36:32 -0.06, 61.27 -0.86, 57.69 408.10 80
2 03/11/2024 09:15:08 -0.06, 61.27 0.18, 62.22 109.20 80
3 03/12/2024 21:39:34 0.06, 61.18 1.03, 56.96 481.92 80
4 03/13/2024 21:18:09 0.06, 61.18 -0.02, 61.49 35.07 80
5 03/16/2024 09:23:59 -0.07, 61.26 -0.20, 60.73 60.14 80
6 03/17/2024 09:02:35 -0.07, 61.26 0.85, 65.26 456.51 80
7 03/18/2024 21:27:01 0.08, 61.19 0.35, 60.00 135.50 80
8 03/19/2024 21:05:36 0.08, 61.19 -0.65, 64.54 381.02 80
9 03/21/2024 09:30:11 -0.09, 61.27 -0.55, 59.24 231.30 80
10 03/22/2024 09:08:45 -0.09, 61.27 0.45, 63.78 285.21 80
